sat.trackr.live / text

‹ back to catalog

NINGXIA-1 3

NORAD 44781 · 2019-076C

PAYLOAD ACTIVE UNKNOWN

§ Identity

Operator
Country
PRC
Launch date
2019-11-13
Launch site
TAISC
Launch vehicle
Mass (kg)
RCS (m²)

External: N2YO · Heavens-Above · Gunter

§ Orbital elements

Epoch: 2026-05-25T04:55:04.365696Z

Period
102.71 min
Inclination
45.0002°
Eccentricity
0.0009370
Mean motion
14.02049134 rev/d
Perigee alt
879.9 km
Apogee alt
893.5 km
Semi-major
7,264.8 km
B*
2.4795e-5
RAAN
281.1024°
Arg perigee
35.8809°
Mean anomaly
324.2652°
Rev number
33,463

§ Raw data

NINGXIA-1 31 44781U 19076C   26145.20491164 -.00000092  00000+0  24795-4 0  99942 44781  45.0002 281.1024 0009370  35.8809 324.2652 14.02049134334638

JSON: /api/v1/satellites/44781 · /tle

For live sub-satellite position, see the globe view (requires WebGL).

§ Visibility from observer

Set your observer location to see the next 7 days of passes ≥ 10°. The values pass through the URL so the page stays shareable.

No JS? Fill the form by hand. The geolocation button needs JavaScript.

§ Radio — SatNOGS DB

ModeDescriptionDownlinkUplink
FM S-band telemetry 2.233 GHz

1 transmitter · refreshed weekly from db.satnogs.org